Location: 22
(39.7117°N, 89.5929°W)
Time: 01:13:27
(UTC-05:00)

A-11 Canister half - Pass Details

Date: 19 June 2023
Orbit: 1524 x 1684 km, 47.3° (Epoch: 29 September)

Event Time Altitude Azimuth Distance (km) Brightness Sun altitude
Rises 22:29:33 0° 295° (WNW) 4,677 12.6 -17.8°
Reaches altitude 10° 22:32:37 10° 298° (WNW) 3,691 12.0 -18.1°
Maximum altitude 22:41:55 73° 23° (NNE) 1,589 9.1 -19.1°
Enters shadow 22:49:51 16° 107° (ESE) 3,271 10.3 -19.9°
